Home   Weather   Middlesbrough   Past weeks
Flag for United Kingdom

Past Weather in Middlesbrough, England, United Kingdom — Yesterday and Last 2 Weeks

Now
82 °F

Passing clouds.


Feels Like: 83 °F
Forecast: 75 / 63 °F
Wind: 13 mph from South

Location: Tees-Side

Current Time: Jul 23, 2019 at 5:30:24 pm

Latest Report: Jul 23, 2019 at 4:50 pm


Visibility: N/A

Pressure: 29.98 "Hg

Humidity: 48%

Dew Point: 61 °F

Location of MiddlesbroughLocation

Past Weather in Middlesbrough — Graph

°F

Middlesbrough Temperature Yesterday

Maximum temperature yesterday: 73 °F (at 2:20 pm)
Minimum temperature yesterday: 66 °F (at 5:50 am)
Average temperature yesterday: 69 °F

High & Low Weather Summary for the Past Weeks

 TemperatureHumidityPressure
High82 °F (Jul 23, 3:20 pm)100% (Jul 16, 6:20 am)30.30 "Hg (Jul 16, 6:20 am)
Low50 °F (Jul 15, 5:50 am)41% (Jul 17, 1:50 pm)29.53 "Hg (Jul 20, 6:20 am)
Average64 °F72%29.97 "Hg
* Reported Jul 8 4:20 pm — Jul 23 4:20 pm, Middlesbrough. Weather by CustomWeather, © 2019

Note: Actual official high and low records may vary slightly from our data, if they occured in-between our weather recording intervals... More about our weather records

Advertising

Middlesbrough Weather History for the Previous 24 Hours

Scroll right to see more
 ConditionsComfort  
Time TempWeatherWind HumidityBarometerVisibility
4:20 pm
Tue, Jul 23
82 °FPassing clouds.13 mph51%29.98 "HgN/A
3:50 pm82 °FPassing clouds.10 mph51%30.01 "HgN/A
3:20 pm82 °FPassing clouds.12 mph48%30.01 "HgN/A
2:50 pm81 °FPassing clouds.9 mph51%30.01 "HgN/A
2:20 pm81 °FPassing clouds.10 mph51%30.01 "HgN/A
1:50 pm79 °FPassing clouds.10 mph54%30.04 "HgN/A
1:20 pm77 °FPassing clouds.8 mph57%30.04 "HgN/A
12:50 pm77 °FPassing clouds.12 mph57%30.04 "HgN/A
12:20 pm75 °FPassing clouds.12 mph61%30.04 "HgN/A
11:50 am73 °FPassing clouds.10 mph65%30.07 "HgN/A
11:20 am72 °FPassing clouds.10 mph69%30.07 "HgN/A
10:50 am72 °FPassing clouds.10 mph69%30.09 "HgN/A
10:20 am70 °FPassing clouds.10 mph69%30.07 "HgN/A
9:50 am68 °FPassing clouds.10 mph73%30.07 "HgN/A
9:20 am68 °FPassing clouds.9 mph73%30.07 "HgN/A
8:50 am66 °FPassing clouds.8 mph78%30.09 "HgN/A
8:20 am66 °FPassing clouds.9 mph78%30.09 "HgN/A
7:50 am66 °FPassing clouds.8 mph78%30.09 "HgN/A
7:20 am64 °FPassing clouds.8 mph83%30.09 "HgN/A
6:50 am63 °FPassing clouds.8 mph83%30.09 "HgN/A
6:20 am61 °FPassing clouds.9 mph88%30.09 "HgN/A
5:50 am63 °FPassing clouds.6 mph83%30.09 "HgN/A
9:50 pm
Mon, Jul 22
66 °FPassing clouds.14 mph73%30.07 "HgN/A
9:20 pm66 °FPassing clouds.12 mph78%30.07 "HgN/A
8:50 pm68 °FPassing clouds.18 mph69%30.07 "HgN/A
8:20 pm68 °FPassing clouds.23 mph69%30.07 "HgN/A
7:50 pm70 °FPassing clouds.23 mph64%30.07 "HgN/A
7:20 pm70 °FPassing clouds.23 mph69%30.04 "HgN/A
6:50 pm72 °FPassing clouds.26 mph65%30.04 "HgN/A
6:20 pm73 °FPassing clouds.23 mph61%30.04 "HgN/A
5:50 pm72 °FPassing clouds.25 mph65%30.04 "HgN/A
5:20 pm72 °FPassing clouds.26 mph65%30.04 "HgN/A
Weather by CustomWeather, © 2019

See weather overview